Home   Weather   Rovaniemi   Past weeks

Flag for Finland Past Weather in Rovaniemi, Finland — Yesterday and Last 2 Weeks

Now
50 °F

Overcast.


Feels Like: 46 °F
Forecast: 48 / 55 °F
Wind: 9 mph from Southwest

Location: Rovaniemi Airport

Current Time: Sep 26, 2016 at 1:32:48 AM

Latest Report: Sep 25, 2016 at 9:50 PM


Visibility: N/A

Pressure: 30.07 "Hg

Humidity: 94%

Dew Point: 48 °F

Location of RovaniemiLocation

Past Weather in Rovaniemi — Graph

°F

Rovaniemi Temperature Yesterday

Maximum temperature yesterday: 54 °F (at 2:50 PM)
Minimum temperature yesterday: 41 °F (at 12:20 AM)
Average temperature yesterday: 46 °F

High & Low Weather Summary for the Past Weeks

 TemperatureHumidityPressure
High57 °F (Sep 11, 1:20 PM)100% (Sep 11, 6:20 PM)30.33 "Hg (Sep 11, 6:20 PM)
Low37 °F (Sep 13, 4:20 AM)50% (Sep 17, 12:50 PM)29.45 "Hg (Sep 12, 1:50 AM)
Average47 °F84%30.08 "Hg
* Reported Sep 10 9:20 PM — Sep 25 9:50 PM, Rovaniemi, Weather by CustomWeather, © 2016

Note: Actual official high and low records may vary slightly from our data, if they occured in-between our weather recording intervals... More about our weather records

Advertising

Rovaniemi Weather History for the Previous 24 Hours

Scroll right to see more
 ConditionsComfort  
Time TempWeatherWind HumidityBarometerVisibility
9:50 PM
Sun, Sep 25
50 °FOvercast.9 mph94%30.07 "HgN/A
9:20 PM50 °FPassing clouds.9 mph94%30.07 "HgN/A
8:50 PM50 °FPassing clouds.7 mph94%30.04 "HgN/A
8:20 PM50 °FPartly cloudy.9 mph94%30.04 "HgN/A
7:50 PM50 °FMostly cloudy.10 mph94%30.04 "HgN/A
7:20 PM52 °FPartly cloudy.12 mph82%30.04 "HgN/A
6:50 PM52 °FMostly cloudy.14 mph82%30.04 "HgN/A
6:20 PM52 °FPartly sunny.13 mph77%30.04 "HgN/A
5:50 PM52 °FSunny.14 mph77%30.04 "Hg10 mi
5:20 PM54 °FSunny.10 mph72%30.01 "Hg10 mi
4:50 PM54 °FSunny.9 mph72%30.01 "Hg10 mi
4:20 PM54 °FPartly sunny.12 mph72%30.01 "HgN/A
3:50 PM54 °FBroken clouds.14 mph72%30.01 "HgN/A
3:20 PM54 °FPartly sunny.6 mph77%30.01 "HgN/A
2:50 PM54 °FBroken clouds.7 mph77%30.01 "HgN/A
2:20 PM52 °FBroken clouds.6 mph82%30.01 "HgN/A
1:50 PM52 °FBroken clouds.5 mph82%30.01 "HgN/A
1:20 PM50 °FMostly cloudy.8 mph88%30.01 "HgN/A
12:50 PM48 °FPartly sunny.9 mph87%30.01 "HgN/A
12:20 PM48 °FMostly cloudy.9 mph87%30.01 "HgN/A
11:50 AM46 °FMostly cloudy.10 mph93%29.98 "HgN/A
11:20 AM46 °FPartly sunny.8 mph87%29.98 "HgN/A
10:50 AM46 °FBroken clouds.6 mph82%29.98 "HgN/A
10:20 AM45 °FBroken clouds.3 mph81%29.98 "HgN/A
9:50 AM43 °FBroken clouds.3 mph81%29.98 "HgN/A
9:20 AM43 °FBroken clouds.6 mph81%29.98 "HgN/A
8:50 AM41 °FPartly sunny.5 mph87%29.98 "HgN/A
8:20 AM43 °FOvercast.3 mph81%29.98 "HgN/A
7:50 AM41 °FBroken clouds.3 mph87%29.98 "HgN/A
7:20 AM41 °FPartly sunny.2 mph93%29.98 "HgN/A
6:50 AM41 °FOvercast.3 mph93%29.98 "HgN/A
6:20 AM41 °FPassing clouds.5 mph93%29.95 "HgN/A
5:50 AM41 °FClear.5 mph93%29.95 "Hg10 mi
5:20 AM41 °FClear.5 mph93%29.98 "Hg10 mi
4:50 AM41 °FClear.6 mph93%29.95 "Hg10 mi
4:20 AM41 °FClear.6 mph93%29.95 "Hg10 mi
3:50 AM41 °FOvercast.7 mph93%29.95 "HgN/A
3:20 AM41 °FPartly cloudy.7 mph93%29.95 "HgN/A
2:50 AM41 °FMostly cloudy.7 mph93%29.95 "HgN/A
2:20 AM41 °FPassing clouds.6 mph93%29.95 "HgN/A
1:50 AM41 °FOvercast.6 mph100%29.95 "HgN/A
1:20 AM41 °FPassing clouds.7 mph100%29.95 "HgN/A
Weather by CustomWeather, © 2016

See weather overviewHow to use our weather pages